Temperature
14 14 14 14 14 14 14 14 14 14 14 13 13 13 14 14 14 14 14 14 14 14 14 14 14 14 14 14 14 14 14 14 14 14 14 13 13 13 13 13 13 13 13
13 13 13 13 13 13 13 13 13 13 13 13 13 13 13 13 13 13 14 14 14 14 14 14 14 14 14 14 14 14 14 14 14 14 14 13 13 13 13 13 13 13 13
13 13 13 13 13 13 13 13 13 13 13 13 13 13 13 13 13 13 13 13 14 14 14 14 14 14 14 14 14 14 13 13 13 13 13 13 13 13 13 13 13 13 13
12 12 12 12 12 12 12 12 12 12 12 12 12 12 13 13 13 13 13 13 13 14 14 14 14 14 13 13 13 13 13 13 13 13 13 13 13 13 13 13 13 13 13
12 11 11 11 11 11 11 12 11 12 12 12 12 12 12 12 12 12 12 13 13 13 13 13 13 13 13 13 13 13 13 13 13 13 13 13 13 13 13 13 13 13 13
11 11 11 11 11 11 11 11 11 11 11 11 11 11 11 12 12 12 12 12 12 13 13 13 13 13 13 13 13 13 13 13 13 13 13 13 12 13 13 13 12 12 12
10 10 10 10 10 10 10 10 10 10 10 10 10 11 11 11 11 11 12 12 12 12 12 12 12 12 13 13 13 13 13 13 13 12 12 12 12 12 12 12 12 12 12
10 10 10 10 10 10 10 10 10 10 10 10 9 9 10 11 11 11 11 11 12 12 12 12 12 12 12 12 12 12 12 12 12 12 12 12 12 12 12 12 12 12 12
9 9 9 9 9 9 9 9 9 9 9 9 9 9 9 10 10 10 11 11 11 11 11 11 11 11 12 11 12 12 12 12 12 12 12 12 12 12 12 12 12 12 12
9 9 9 9 9 9 9 9 9 8 8 8 8 8 8 8 9 9 10 10 10 10 10 10 11 11 11 11 11 11 11 11 11 11 11 11 11 11 12 11 11 11 11
8 8 8 8 8 8 8 8 8 8 8 8 8 8 8 8 8 8 9 9 9 9 9 10 10 10 10 10 10 10 11 11 11 11 11 11 11 11 11 11 11 11 11
8 7 8 8 7 7 7 8 8 8 8 7 7 7 7 7 7 7 8 8 8 9 9 9 9 9 9 9 9 10 10 10 10 10 10 10 10 10 11 11 10 10 10
7 7 7 7 7 7 7 7 7 7 7 7 7 7 7 7 7 7 7 7 7 8 8 8 8 8 8 8 9 9 9 9 9 9 9 10 10 10 10 10 10 10 10
6 6 6 6 7 7 7 7 7 7 6 6 6 6 6 6 6 6 6 6 7 7 7 7 7 8 8 8 8 8 8 8 9 9 9 9 9 9 9 9 9 9 9
6 6 6 6 6 6 6 6 6 6 6 6 6 6 6 6 6 6 6 6 6 6 6 6 6 7 7 7 7 7 7 7 8 8 8 8 8 8 8 8 8 9 9
5 5 5 5 5 6 6 6 6 6 6 5 5 5 5 5 5 5 5 5 5 5 5 5 5 6 6 6 6 6 6 6 7 7 7 7 7 7 7 8 8 8 8
4 4 5 5 5 5 5 5 5 5 5 5 5 5 5 5 5 4 4 4 4 4 4 4 4 4 4 5 5 5 5 5 6 6 6 6 6 6 6 7 7 7 7
4 4 4 4 4 4 4 4 4 4 4 4 4 4 4 4 4 4 4 3 3 3 3 3 3 3 4 4 4 4 4 4 4 5 5 5 5 5 6 6 6 6 6
4 3 4 4 4 4 4 4 4 4 3 3 3 3 3 3 3 3 3 3 3 3 3 2 2 3 3 3 3 3 3 3 3 4 4 4 4 4 5 5 5 5 5
3 3 3 3 3 3 3 3 3 3 3 3 3 2 2 2 2 2 2 2 2 2 1 1 1 1 2 2 2 2 2 2 2 2 3 3 3 3 4 4 4 4 4
3 3 3 3 3 3 2 2 2 2 2 2 2 2 1 1 1 1 1 1 1 0 0 0 0 0 0 0 0 0 1 1 1 1 2 2 2 2 2 3 3 3 3
3 3 2 2 2 2 2 2 1 1 1 1 1 1 1 1 1 0 0 0 -0 -0 -0 -1 -1 -1 -1 -1 -1 -1 -1 -1 -1 -0 -0 1 1 1 1 2 2 2 2
2 2 2 2 2 1 1 1 1 1 0 0 -0 -0 -0 -0 -1 -1 -1 -1 -1 -1 -1 -1 -2 -2 -2 -2 -2 -2 -2 -2 -2 -2 -1 -1 -1 -0 0 0 1 1 1
2 2 2 1 1 1 1 0 0 -0 -0 -1 -1 -1 -1 -1 -2 -2 -2 -2 -2 -2 -2 -2 -2 -2 -2 -2 -2 -3 -3 -3 -2 -3 -3 -3 -2 -2 -1 -1 -0 0 0
2 1 1 1 1 0 0 -0 -1 -1 -1 -1 -2 -2 -2 -2 -2 -3 -3 -3 -3 -3 -2 -2 -3 -3 -3 -3 -3 -3 -3 -4 -4 -4 -4 -4 -3 -3 -2 -1 -1 -1 -1
1 1 1 0 0 -0 -0 -1 -1 -2 -2 -2 -2 -3 -3 -3 -3 -3 -4 -4 -3 -3 -3 -3 -3 -3 -3 -4 -4 -4 -4 -5 -5 -5 -4 -4 -4 -4 -4 -3 -2 -2 -2
Wind_Speed
4 4 4 5 5 6 6 6 7 8 9 9 10 10 11 12 12 11 10 12 16 17 17 18 18 18 18 17 17 17 17 16 15 15 15 14 14 13 12 12 12 11 10
4 4 5 5 5 6 7 7 8 8 8 8 9 10 12 12 13 13 12 12 16 18 19 19 19 19 19 19 19 19 18 18 17 17 16 16 15 15 14 14 13 13 12
5 5 5 5 5 6 7 7 8 8 7 8 10 11 11 12 12 13 13 13 13 17 20 20 21 21 21 20 20 20 20 19 18 18 18 17 17 16 16 15 15 14 14
6 5 5 5 6 6 6 6 6 7 8 8 9 9 10 10 13 14 13 14 13 13 16 20 21 22 21 21 20 20 20 19 19 19 19 19 18 18 17 17 17 16 15
6 6 5 5 6 5 5 6 6 7 8 8 9 9 10 10 11 12 13 14 14 14 14 14 19 21 21 21 21 21 20 20 20 20 20 20 20 20 20 19 19 18 17
6 6 5 6 5 5 5 6 7 7 7 8 9 9 10 10 10 11 12 12 13 14 15 14 14 15 20 21 22 22 22 21 21 21 21 21 21 21 21 21 20 20 19
7 6 5 5 5 5 6 7 7 8 7 6 7 7 9 11 11 10 10 10 11 12 13 14 13 13 13 17 20 20 21 22 21 21 21 22 22 22 22 22 22 21 21
7 6 5 5 5 5 6 6 6 6 6 5 5 6 6 7 8 9 9 9 10 9 10 12 12 12 12 11 12 16 19 20 21 21 21 21 22 22 23 23 22 22 21
7 6 6 5 5 5 5 6 6 7 7 6 6 5 5 6 6 6 8 8 8 7 8 8 9 10 11 10 10 11 13 16 19 20 20 21 21 22 23 23 23 23 22
6 7 7 6 5 5 5 6 6 6 7 7 6 7 8 8 6 6 6 6 6 7 7 6 6 7 8 8 8 8 9 12 15 17 18 18 17 19 20 21 21 20 20
6 7 7 6 6 5 6 6 6 6 6 7 6 6 7 8 8 8 9 7 6 5 6 6 6 5 6 6 6 6 7 8 11 13 15 16 17 16 17 18 19 19 19
5 6 7 6 6 5 6 6 6 6 6 7 6 6 6 6 6 7 9 9 8 6 6 4 4 4 4 4 4 5 5 7 9 12 13 14 14 15 15 17 17 17 18
5 6 7 6 6 6 6 6 5 5 5 6 6 5 5 6 6 7 8 9 9 7 6 4 4 3 3 4 4 5 5 6 8 10 12 13 13 12 13 14 15 16 16
5 7 7 7 7 7 6 5 5 5 5 5 6 6 5 5 5 6 7 7 8 8 6 5 3 3 3 4 5 6 6 6 7 9 11 11 11 11 12 13 13 14 14
5 6 6 6 6 6 6 5 4 5 5 5 5 5 5 4 5 5 6 6 7 8 7 6 4 3 3 4 5 6 6 7 8 8 9 10 11 11 11 11 13 13 14
5 5 5 6 6 6 5 5 4 5 4 4 4 4 4 4 4 4 4 5 5 6 6 4 4 4 4 4 5 6 7 8 8 8 9 10 11 11 11 11 11 12 13
4 5 5 5 5 5 5 5 4 5 4 4 4 4 4 5 4 4 4 4 4 4 6 5 4 5 6 6 6 7 8 8 7 8 9 10 11 12 12 12 12 12 12
3 4 4 4 4 5 5 5 5 5 4 4 5 4 5 4 5 4 4 4 4 4 5 6 5 5 6 6 7 8 7 7 8 9 10 11 13 13 13 13 13 13 13
3 3 3 4 4 4 5 5 5 5 5 5 5 5 5 5 5 5 5 4 4 4 4 5 6 5 5 5 7 7 7 7 8 9 10 11 12 12 13 13 13 14 13
2 2 2 3 3 3 4 4 4 4 4 5 5 5 5 6 6 5 5 5 5 5 5 5 5 5 5 5 6 7 7 7 7 8 9 10 11 11 12 13 13 13 13
1 1 2 2 3 3 3 4 4 4 4 4 4 5 5 6 7 6 5 5 5 5 5 5 5 5 5 5 6 6 8 9 8 6 7 8 8 8 8 10 11 12 13
1 1 1 2 2 3 5 5 4 3 3 4 4 5 5 5 6 6 6 7 7 6 5 5 5 6 7 7 7 7 8 8 7 5 8 10 8 8 8 9 12 14 14
1 1 1 1 2 3 5 5 4 3 3 3 4 4 4 5 6 5 5 5 6 6 6 6 6 7 8 8 9 9 9 9 9 9 9 10 9 9 9 10 14 15 15
2 2 1 1 2 2 4 4 3 3 3 3 4 5 5 5 5 6 5 5 5 6 6 5 5 7 8 9 9 9 10 10 10 8 7 8 9 10 10 10 13 14 14
3 2 2 2 2 2 3 4 4 3 2 3 4 5 5 5 7 8 6 6 6 6 5 6 7 8 10 11 10 7 7 7 8 7 6 6 8 10 10 9 9 12 14
3 2 2 2 2 2 3 4 4 2 3 3 3 4 5 7 8 9 6 6 6 7 7 7 7 7 7 7 8 6 6 7 7 6 5 5 7 7 7 7 7 9 10
Wind_Direction
294 288 277 270 266 265 258 254 253 251 250 251 250 249 247 244 244 245 244 225 228 237 242 243 242 240 239 238 238 237 236 234 235 236 236 235 235 238 240 242 243 245 247
301 293 285 280 275 269 265 260 257 257 256 253 254 252 252 250 248 247 248 239 229 235 241 244 245 244 242 242 241 240 238 236 236 236 235 236 238 238 241 243 244 245 247
306 296 288 285 283 276 271 265 262 259 257 255 254 253 252 252 251 249 247 247 242 234 236 242 245 246 246 245 244 243 241 237 236 237 237 237 238 238 240 243 244 244 246
313 303 290 285 288 282 274 267 263 260 257 257 258 256 253 251 253 252 250 245 245 245 238 235 241 245 247 247 248 246 243 240 238 237 239 239 239 238 239 241 243 244 245
316 304 294 294 292 284 276 270 267 264 263 261 262 262 259 255 254 253 251 250 247 245 247 239 234 241 245 247 248 248 247 244 241 238 238 240 240 239 239 240 241 243 244
323 312 302 300 297 287 280 273 270 266 264 265 266 265 263 261 255 253 254 252 249 246 245 247 243 239 239 243 246 247 247 247 246 243 241 240 240 240 241 241 241 242 243
334 324 314 307 302 289 288 287 278 272 267 268 268 268 263 258 253 251 252 253 252 249 249 248 247 248 243 237 241 246 248 249 249 248 246 243 241 241 242 242 242 243 244
339 330 320 311 307 298 294 293 288 283 278 267 266 277 273 263 250 255 254 253 255 256 254 252 252 251 252 250 243 241 247 251 253 252 249 247 244 243 243 244 244 244 244
339 335 325 314 307 299 295 294 289 281 276 268 258 258 267 265 287 258 252 252 258 262 261 262 261 262 259 256 256 247 245 251 256 257 256 252 249 245 244 246 247 247 246
341 340 332 325 314 303 294 289 284 278 276 272 268 258 262 275 274 277 266 262 267 268 272 272 269 265 264 264 267 278 268 258 259 261 260 259 258 255 251 248 248 249 248
338 341 338 331 323 313 305 297 290 283 276 272 269 268 264 265 262 266 275 277 277 275 275 273 272 272 273 268 271 286 289 277 272 270 268 267 266 265 260 258 254 250 249
330 339 336 330 324 317 313 305 295 290 284 278 273 269 266 264 263 262 268 276 276 274 276 278 275 279 286 280 285 307 308 297 289 283 277 275 275 273 273 268 265 259 252
325 332 332 326 323 319 317 312 304 298 293 287 280 274 269 265 269 267 268 275 275 274 271 278 284 282 288 289 295 307 296 292 294 293 290 285 282 283 282 283 275 270 265
318 324 326 325 323 323 320 314 309 308 306 299 294 289 280 278 278 273 271 274 276 273 268 269 288 286 297 302 314 306 298 300 296 292 293 296 296 292 286 284 285 281 275
313 320 322 325 326 325 323 318 312 312 311 306 305 303 296 294 294 288 282 277 273 274 273 274 279 301 306 312 324 310 308 315 307 299 300 300 300 297 288 285 282 280 278
314 318 326 331 333 334 331 326 321 321 323 326 320 316 314 313 310 311 308 297 284 274 274 287 295 313 320 317 323 313 309 310 302 301 302 301 299 299 295 284 281 279 277
316 321 328 333 339 342 342 340 339 335 335 337 334 331 330 325 319 322 321 318 310 294 277 287 298 311 315 317 318 316 309 306 303 300 299 298 296 295 295 292 285 281 279
318 324 327 334 342 345 345 345 345 344 342 341 340 339 334 333 333 330 326 321 312 307 293 290 298 307 310 319 316 312 314 312 307 307 302 298 295 294 293 292 289 282 277
314 324 331 337 343 348 349 350 347 349 352 350 348 349 345 343 347 345 336 325 320 316 307 293 294 304 305 319 316 313 315 314 310 308 303 299 296 294 291 290 290 284 277
305 326 337 343 345 348 351 353 351 354 358 3 2 359 357 355 351 344 339 334 327 319 311 300 297 304 308 316 315 314 314 315 310 308 306 304 301 297 293 291 290 286 279
297 323 336 345 352 353 356 351 347 353 1 4 4 3 6 4 358 353 346 337 333 324 319 309 305 308 311 319 318 318 310 313 306 309 312 308 305 300 300 298 292 288 286
276 319 337 350 2 7 4 3 353 353 358 358 355 352 352 352 355 358 3 360 350 334 322 313 309 310 314 317 317 313 311 310 306 319 315 305 303 300 302 299 300 297 290
223 238 284 332 350 5 1 6 8 349 351 349 343 339 339 342 341 339 346 349 352 352 338 314 308 309 310 313 311 308 305 301 294 305 306 296 301 297 299 302 303 299 296
224 234 257 297 317 348 357 358 350 338 348 351 347 343 338 339 347 337 330 333 335 339 337 327 315 312 312 312 306 298 297 296 292 291 292 286 297 298 301 298 300 299 297
218 224 237 262 283 314 349 348 333 330 334 343 346 346 341 339 346 338 332 326 324 326 333 330 322 317 317 318 315 306 303 302 297 302 306 291 298 304 299 293 295 300 301
215 216 226 244 264 292 337 338 325 318 322 329 335 340 352 350 346 343 337 331 328 329 329 326 324 323 323 327 326 313 303 298 298 299 313 305 300 311 301 290 297 305 302
Height
1527 1527 1527 1527 1527 1527 1527 1527 1527 1527 1527 1527 1527 1528 1528 1528 1528 1528 1528 1527 1528 1528 1529 1529 1530 1530 1530 1531 1531 1531 1531 1532 1532 1532 1532 1532 1532 1532 1532 1531 1531 1531 1530
1524 1524 1524 1523 1523 1523 1523 1523 1523 1523 1523 1523 1523 1523 1523 1524 1524 1523 1523 1523 1523 1524 1525 1525 1526 1526 1526 1527 1527 1528 1528 1528 1529 1529 1529 1529 1529 1529 1529 1529 1528 1528 1528
1521 1521 1520 1520 1519 1519 1519 1518 1519 1519 1519 1519 1518 1518 1519 1519 1519 1519 1519 1519 1519 1519 1519 1520 1521 1521 1522 1522 1523 1523 1524 1524 1525 1525 1525 1525 1525 1525 1526 1526 1525 1525 1525
1518 1518 1517 1516 1516 1515 1515 1514 1514 1514 1514 1514 1514 1514 1514 1513 1513 1514 1513 1513 1513 1514 1514 1515 1515 1516 1517 1517 1518 1518 1519 1520 1520 1521 1521 1521 1521 1522 1522 1522 1522 1522 1521
1515 1514 1514 1513 1512 1512 1511 1511 1510 1510 1510 1509 1509 1509 1509 1508 1508 1508 1508 1508 1508 1508 1509 1509 1510 1510 1511 1512 1512 1513 1514 1514 1515 1515 1516 1516 1517 1517 1517 1517 1518 1518 1517
1512 1511 1510 1509 1509 1508 1507 1507 1506 1506 1505 1505 1504 1504 1503 1503 1502 1502 1503 1503 1503 1503 1503 1504 1504 1504 1505 1506 1506 1507 1508 1508 1509 1510 1510 1511 1511 1512 1512 1512 1513 1513 1513
1509 1508 1507 1506 1505 1504 1503 1503 1502 1501 1501 1501 1500 1498 1497 1497 1497 1496 1497 1497 1497 1497 1497 1498 1498 1498 1498 1499 1500 1500 1501 1502 1503 1503 1504 1505 1505 1506 1506 1507 1507 1508 1508
1506 1505 1504 1502 1501 1500 1499 1499 1498 1497 1496 1497 1496 1495 1493 1493 1491 1491 1491 1491 1491 1492 1491 1492 1492 1493 1493 1493 1493 1494 1494 1495 1496 1496 1497 1498 1499 1499 1500 1501 1501 1502 1502
1503 1502 1501 1499 1498 1497 1496 1495 1494 1493 1492 1492 1492 1493 1491 1488 1487 1487 1486 1486 1486 1486 1486 1486 1486 1486 1487 1487 1487 1487 1488 1488 1489 1490 1490 1491 1492 1492 1493 1494 1495 1495 1496
1500 1499 1497 1496 1495 1493 1492 1491 1490 1490 1489 1488 1488 1488 1488 1487 1486 1483 1482 1481 1480 1480 1480 1480 1480 1480 1480 1480 1480 1480 1481 1481 1482 1482 1483 1483 1484 1485 1485 1486 1487 1488 1489
1497 1496 1494 1493 1492 1490 1489 1488 1487 1486 1486 1485 1484 1484 1483 1482 1482 1481 1478 1477 1476 1476 1475 1475 1474 1474 1474 1474 1473 1473 1474 1475 1475 1475 1476 1476 1476 1477 1478 1479 1479 1480 1481
1494 1493 1491 1490 1489 1487 1486 1485 1484 1483 1482 1481 1480 1480 1479 1478 1477 1476 1475 1473 1472 1471 1471 1470 1469 1469 1468 1468 1467 1467 1467 1468 1468 1468 1468 1469 1469 1469 1470 1471 1471 1472 1473
1491 1490 1488 1487 1486 1484 1483 1482 1480 1479 1478 1477 1476 1475 1475 1474 1473 1472 1471 1469 1468 1467 1466 1465 1464 1464 1463 1462 1461 1461 1461 1461 1461 1461 1461 1461 1462 1462 1462 1463 1463 1464 1464
1488 1487 1485 1484 1483 1481 1480 1478 1477 1476 1474 1473 1472 1471 1470 1469 1469 1468 1467 1466 1463 1462 1461 1460 1460 1459 1458 1457 1456 1456 1455 1454 1454 1454 1454 1454 1454 1454 1455 1455 1455 1455 1456
1485 1484 1482 1481 1480 1478 1477 1475 1474 1472 1471 1470 1469 1468 1466 1465 1464 1463 1462 1462 1462 1459 1457 1456 1455 1454 1453 1452 1451 1450 1449 1448 1448 1447 1447 1447 1447 1447 1446 1446 1447 1447 1448
1482 1481 1480 1478 1477 1475 1474 1472 1471 1469 1468 1466 1465 1464 1463 1461 1460 1459 1458 1457 1456 1456 1453 1452 1451 1449 1448 1447 1445 1444 1443 1442 1441 1440 1440 1439 1439 1439 1438 1438 1438 1439 1439
1480 1478 1477 1476 1474 1473 1471 1470 1468 1466 1465 1463 1462 1461 1459 1458 1457 1455 1454 1453 1452 1451 1449 1447 1446 1445 1443 1442 1440 1439 1438 1436 1434 1433 1433 1432 1432 1431 1431 1430 1430 1430 1430
1477 1476 1475 1473 1472 1470 1469 1467 1465 1464 1462 1460 1459 1458 1456 1455 1454 1452 1451 1449 1448 1447 1446 1443 1442 1441 1439 1437 1435 1434 1432 1431 1429 1427 1426 1425 1425 1424 1423 1423 1422 1422 1422
1475 1474 1472 1471 1469 1468 1466 1465 1463 1461 1459 1458 1456 1455 1453 1452 1450 1449 1448 1446 1445 1443 1442 1441 1438 1437 1435 1433 1431 1429 1427 1425 1424 1422 1420 1419 1418 1417 1416 1415 1414 1414 1413
1473 1472 1470 1469 1467 1466 1464 1462 1461 1459 1457 1456 1454 1452 1451 1449 1447 1446 1444 1443 1442 1440 1439 1437 1435 1433 1431 1429 1427 1425 1422 1420 1418 1417 1415 1413 1411 1410 1408 1407 1407 1406 1405
1471 1470 1468 1467 1465 1463 1462 1460 1458 1457 1455 1454 1452 1450 1449 1447 1445 1443 1442 1440 1439 1437 1435 1433 1431 1429 1427 1425 1423 1420 1418 1415 1413 1411 1409 1407 1405 1403 1402 1400 1399 1398 1397
1469 1467 1466 1465 1463 1461 1460 1458 1457 1455 1453 1452 1450 1448 1447 1445 1443 1441 1439 1437 1436 1434 1432 1430 1428 1426 1424 1422 1419 1417 1414 1411 1408 1407 1404 1401 1400 1397 1395 1393 1392 1390 1389
1466 1465 1464 1462 1461 1459 1458 1456 1454 1453 1451 1449 1448 1446 1444 1442 1440 1438 1436 1434 1433 1431 1430 1428 1425 1423 1420 1418 1416 1413 1411 1408 1405 1402 1399 1395 1394 1391 1389 1386 1385 1383 1382
1463 1462 1461 1460 1459 1457 1455 1454 1452 1451 1449 1447 1445 1444 1442 1440 1438 1436 1434 1432 1430 1428 1426 1424 1422 1419 1417 1414 1412 1410 1406 1403 1400 1397 1395 1391 1387 1385 1382 1380 1378 1377 1375
1460 1459 1458 1457 1456 1455 1453 1451 1450 1448 1447 1445 1443 1441 1439 1437 1435 1433 1431 1429 1427 1425 1423 1420 1418 1415 1413 1410 1408 1405 1402 1399 1395 1392 1390 1387 1382 1379 1376 1373 1371 1370 1368
1457 1456 1455 1454 1453 1452 1450 1449 1447 1446 1444 1442 1440 1439 1436 1435 1433 1431 1429 1426 1424 1421 1419 1416 1414 1411 1409 1406 1403 1401 1398 1395 1391 1388 1385 1383 1379 1376 1370 1366 1365 1363 1361